User: anonymous   Login
Location: Famechon
(49.7599°N, 2.0615°E)
Time: 01:32:19
(UTC+00:00)
Language:

COSMOS 2428 - Orbit

View from above orbital plane
View from above orbital plane
View from above satellite
View from above satellite

Ground track
Ground track

The orbit data is extracted from the following two-line orbital elements,

1 31792U 07029A   23153.73263436 -.00000130  00000-0 -44046-4 0  9996
2 31792  70.9294 165.1219 0009472 258.1509 101.8550 14.12546401821393
Epoch (UTC): 02 June 2023 17:34:59
Eccentricity: 0.0009472
inclination: 70.9294°
perigee height: 844 km
apogee height: 857 km
right ascension of ascending node: 165.1219°
argument of perigee: 258.1509°
revolutions per day: 14.12546401
mean anomaly at epoch: 101.8550°
orbit number at epoch: 82139

The dashed part of the orbit path shows where the satellite is in the earth's shadow,  

DLR